Weather in Anyang

China     36°05′51″N   114°21′01″E
temp.,
°C
wind,
m/s
gust,
m/s
humid.,
%
clouds,
%
prec.,
mm/h
press.,
hPa
HPBL,
m
12 april, mon
mon1223:00+14wsw235497 0.0 102057
02:00+12wnw226174 0.0 101810
05:00+11w11637 0.0 101610
08:00+16w11488 0.0 1017236
11:00+22s11345 0.0 10161240
14:00+25e132941 0.0 10132392
17:00+25ese232871 0.0 10112337
20:00+21e2340100 0.0 101546
13 april, tue
tue1323:00+19n594699 0.0 1018527
02:00+17n595391 0.0 1019629
05:00+15nne91223100 0.0 1022840
08:00+13nne7923100 0.0 10251056
11:00+17nne651911 0.0 10241551
14:00+19nne44185 0.0 10211774
17:00+19ne32195 0.0 10201982
20:00+13ene2228100 0.0 102133
14 april, wed
wed1423:00+14ssw222696 0.0 102346
02:00+11wsw113280 0.0 102210
05:00+10wsw11355 0.0 102210
08:00+15sw22260 0.0 1022276
11:00+20s33180 0.0 10211978
14:00+23sse44150 0.0 10172537
17:00+22s76194 0.0 10142124
20:00+15s41132100 0.0 1015191
15 april, thu
thu1523:00+14s61464100 0.0 1015426
02:00+13s51082100 0.0 1014286
05:00+11s4987100 0.0 1013228
08:00+15ssw4666100 0.0 1012267
11:00+25nw2619100 0.0 10112072
14:00+28nnw789100 0.0 10104025
17:00+26n77781 0.0 10112851
20:00+16nne48140 0.0 1016123
16 april, fri
fri1623:00+11nw22190 0.0 101911
02:00+11nw22200 0.0 101812
05:00+9sw11211 0.0 101810
08:00+16ssw351610 0.0 1017281
11:00+23s6711100 0.0 10161390
14:00+28wsw4108100 0.0 10124149
17:00+28nw69870 0.0 10104808
20:00+18nw11170 0.0 101411